Buffalo, NY

2:48 AM EST on December 09, 2019 (GMT -0500)
Buffalo Niagara International

Weather History for KBUF - October, 2019

Change the Weather History Date:

Wednesday, October 23, 2019

  Actual Average Record
Temperature  
Mean Temperature 49 °F 48 °F  
Max Temperature 53 °F 56 °F 77 °F (1991)
Min Temperature 44 °F 41 °F 24 °F (1969)
Degree Days  
Heating Degree Days 16 17  
Month to date heating degree days 285 299  
Since 1 July heating degree days 330 461  
Cooling Degree Days 0 0  
Month to date cooling degree days 7 0  
Year to date cooling degree days 604 540  
Moisture  
Dew Point 39 °F    
Average Humidity 74    
Maximum Humidity 93    
Minimum Humidity 54    
Precipitation  
Precipitation 0.11 in 0.11 in 1.81 in (1878)
Month to date precipitation 3.28 2.64  
Year to date precipitation 37.93 31.70  
Snow  
Snow 0.00 in 0.00 in 0.10 in (1969)
Month to date snowfall 0.0 0.5  
Since 1 July snowfall 0.0 0.5  
Since 1 September snowfall 0.0 0.5  
Snow Depth 0.00 in    
Sea Level Pressure  
Sea Level Pressure 29.92 in    
Wind  
Wind Speed 16 mph (SW)    
Max Wind Speed 35 mph    
Max Gust Speed 46 mph    
Visibility 10 miles    
Events Rain    
T = Trace of Precipitation, MM = Missing Value Source: NWS Daily Summary

Daily Weather History Graph

Daily Weather History Graph

Search for Another Location

Airport or City:

Astronomy

Oct. 23, 2019 Rise Set
Actual Time 7:37 AM EDT 6:20 PM EDT
Civil Twilight 7:08 AM EDT 6:48 PM EDT
Nautical Twilight 6:35 AM EDT 7:22 PM EDT
Astronomical Twilight 6:02 AM EDT 7:54 PM EDT
Moon 1:43 AM EDT (10/23) 4:19 PM EDT (10/23)
Length of Visible Light 11h 40m
Length of Day
10h 42m
Waning Crescent, 27% of the Moon is Illuminated
Oct 23
Waning Crescent
Oct 27
New
Nov 4
First Quarter
Nov 12
Full
Nov 19
Last Quarter

Hourly Weather History & Observations

Time (EDT) Temp. Windchill Dew Point Humidity Pressure Visibility Wind Dir Wind Speed Gust Speed Precip Events Conditions
12:54 AM 52.0 °F - 42.1 °F 69% 29.80 in 10.0 mi West 27.6 mph 39.1 mph 0.00 in Rain Light Rain
1:54 AM 51.1 °F - 37.9 °F 61% 29.81 in 10.0 mi WSW 13.8 mph - 0.00 in   Overcast
2:54 AM 48.9 °F - 37.9 °F 66% 29.81 in 10.0 mi West 5.8 mph - N/A   Overcast
3:54 AM 46.9 °F - 44.1 °F 90% 29.80 in 10.0 mi South 6.9 mph - 0.01 in   Overcast
4:24 AM 48.9 °F - 44.1 °F 83% 29.80 in 10.0 mi WSW 10.4 mph - N/A   Overcast
4:54 AM 50.0 °F - 43.0 °F 77% 29.81 in 10.0 mi WSW 11.5 mph 23.0 mph 0.00 in   Overcast
5:12 AM 48.0 °F - 43.0 °F 83% 29.81 in 10.0 mi SW 8.1 mph - N/A   Overcast
5:54 AM 46.9 °F - 43.0 °F 86% 29.84 in 10.0 mi SW 10.4 mph 18.4 mph 0.04 in Rain Light Rain
6:18 AM 46.9 °F - 44.1 °F 90% 29.83 in 10.0 mi WSW 6.9 mph - 0.01 in   Overcast
6:54 AM 46.9 °F - 39.9 °F 77% 29.86 in 10.0 mi WSW 11.5 mph 17.3 mph 0.01 in   Overcast
7:54 AM 46.0 °F 43.1 °F 39.9 °F 79% 29.87 in 10.0 mi SSW 5.8 mph - N/A   Scattered Clouds
8:54 AM 48.0 °F - 42.1 °F 80% 29.88 in 10.0 mi SSW 12.7 mph - 0.00 in Rain Light Rain
9:54 AM 48.9 °F - 42.1 °F 77% 29.89 in 10.0 mi SSW 17.3 mph - 0.05 in   Scattered Clouds
10:54 AM 52.0 °F - 39.9 °F 63% 29.90 in 10.0 mi SW 23.0 mph 32.2 mph N/A   Partly Cloudy
11:54 AM 52.0 °F - 39.9 °F 63% 29.91 in 10.0 mi WSW 20.7 mph 38.0 mph N/A   Mostly Cloudy
12:54 PM 51.1 °F - 39.9 °F 66% 29.93 in 10.0 mi WSW 24.2 mph 35.7 mph N/A   Mostly Cloudy
1:54 PM 52.0 °F - 37.0 °F 57% 29.94 in 10.0 mi WSW 26.5 mph 38.0 mph N/A   Mostly Cloudy
2:54 PM 52.0 °F - 37.0 °F 57% 29.96 in 10.0 mi WSW 24.2 mph 39.1 mph N/A   Mostly Cloudy
3:54 PM 53.1 °F - 37.9 °F 57% 29.98 in 10.0 mi SW 27.6 mph 40.3 mph N/A   Scattered Clouds
4:54 PM 52.0 °F - 37.0 °F 57% 29.99 in 10.0 mi SW 16.1 mph 39.1 mph N/A   Scattered Clouds
5:54 PM 52.0 °F - 37.9 °F 59% 30.01 in 10.0 mi WSW 23.0 mph 39.1 mph N/A   Partly Cloudy
6:54 PM 52.0 °F - 37.0 °F 57% 30.03 in 10.0 mi WSW 20.7 mph 27.6 mph N/A   Mostly Cloudy
7:54 PM 53.1 °F - 37.9 °F 57% 30.05 in 10.0 mi WSW 21.9 mph 29.9 mph N/A   Partly Cloudy
8:54 PM 53.1 °F - 39.9 °F 61% 30.06 in 10.0 mi WSW 15.0 mph - N/A   Partly Cloudy
9:54 PM 50.0 °F - 37.9 °F 63% 30.08 in 10.0 mi SSW 13.8 mph - N/A   Clear
10:54 PM 46.0 °F 41.4 °F 34.0 °F 63% 30.08 in 10.0 mi SSW 9.2 mph - N/A   Clear
11:54 PM 48.9 °F - 33.1 °F 54% 30.08 in 10.0 mi SW 12.7 mph - N/A   Partly Cloudy